Location: *
(46.4000°N, 12.6667°E)
Time: 03:47:12
(UTC+00:00)

Envisat - Pass Details

Date: 11 December 2021
Orbit: 764 x 766 km, 98.2° (Epoch: 16 January)

Event Time Altitude Azimuth Distance (km) Brightness Sun altitude
Rises 04:30:19 0° 11° (N) 3,244 6.3 -21.8°
Reaches altitude 10° 04:32:39 10° 9° (N) 2,313 5.5 -21.5°
Maximum altitude 04:37:43 70° 287° (WNW) 814 2.9 -20.6°
Drops below altitude 10° 04:42:45 10° 204° (SSW) 2,295 5.3 -19.7°
Sets 04:45:02 0° 202° (SSW) 3,217 6.1 -19.4°
